Hourly Weather Ziyodin

Today, 7 August, Friday

Time Temperature Precipitation Wind Pressure Humidity
00:00 +27°C° 0 mm 4 mps 719 mmHg 18%
01:00 +26°C° 0 mm 4 mps 719 mmHg 18%
02:00 +26°C° 0 mm 4 mps 719 mmHg 19%
03:00 +25°C° 0 mm 3 mps 720 mmHg 19%
04:00 +25°C° 0 mm 3 mps 720 mmHg 21%
05:00 +27°C° 0 mm 3 mps 720 mmHg 20%
06:00 +29°C° 0 mm 3 mps 721 mmHg 19%
07:00 +32°C° 0 mm 4 mps 721 mmHg 17%
08:00 +34°C° 0 mm 3 mps 721 mmHg 16%
09:00 +36°C° 0 mm 3 mps 721 mmHg 15%
10:00 +38°C° 0 mm 3 mps 721 mmHg 15%
11:00 +40°C° 0 mm 4 mps 721 mmHg 15%
12:00 +40°C° 0 mm 5 mps 721 mmHg 15%
13:00 +41°C° 0 mm 6 mps 721 mmHg 15%
14:00 +41°C° 0 mm 6 mps 720 mmHg 15%
15:00 +41°C° 0 mm 6 mps 720 mmHg 15%
16:00 +40°C° 0 mm 7 mps 719 mmHg 16%
17:00 +38°C° 0 mm 6 mps 719 mmHg 17%
18:00 +36°C° 0 mm 5 mps 719 mmHg 19%
19:00 +34°C° 0 mm 5 mps 719 mmHg 20%
20:00 +33°C° 0 mm 5 mps 719 mmHg 22%
21:00 +32°C° 0 mm 5 mps 719 mmHg 24%
22:00 +29°C° 0 mm 5 mps 719 mmHg 25%
23:00 +29°C° 0 mm 6 mps 719 mmHg 26%

Tomorrow, 8 August, Saturday

Time Temperature Precipitation Wind Pressure Humidity
00:00 +28°C° 0 mm 6 mps 719 mmHg 27%
01:00 +27°C° 0 mm 7 mps 719 mmHg 27%
02:00 +26°C° 0 mm 6 mps 719 mmHg 29%
03:00 +26°C° 0 mm 5 mps 719 mmHg 32%
04:00 +25°C° 0 mm 4 mps 719 mmHg 34%
05:00 +26°C° 0 mm 4 mps 719 mmHg 32%
06:00 +28°C° 0 mm 4 mps 720 mmHg 30%
07:00 +29°C° 0 mm 4 mps 720 mmHg 27%
08:00 +32°C° 0 mm 4 mps 720 mmHg 25%
09:00 +33°C° 0 mm 5 mps 720 mmHg 22%
10:00 +35°C° 0 mm 5 mps 720 mmHg 20%
11:00 +35°C° 0 mm 5 mps 720 mmHg 19%
12:00 +36°C° 0 mm 5 mps 719 mmHg 18%
13:00 +37°C° 0 mm 5 mps 719 mmHg 17%
14:00 +37°C° 0 mm 5 mps 719 mmHg 17%
15:00 +37°C° 0 mm 5 mps 718 mmHg 16%
16:00 +37°C° 0 mm 5 mps 718 mmHg 15%
17:00 +35°C° 0 mm 5 mps 718 mmHg 18%
18:00 +33°C° 0 mm 4 mps 718 mmHg 20%
19:00 +30°C° 0 mm 3 mps 718 mmHg 23%
20:00 +28°C° 0 mm 3 mps 718 mmHg 25%
21:00 +27°C° 0 mm 3 mps 718 mmHg 28%
22:00 +26°C° 0 mm 2 mps 718 mmHg 30%
23:00 +26°C° 0 mm 2 mps 718 mmHg 33%

Day after tomorrow, 9 August, Sunday

Time Temperature Precipitation Wind Pressure Humidity
00:00 +25°C° 0 mm 2 mps 718 mmHg 36%
01:00 +24°C° 0 mm 2 mps 718 mmHg 40%
02:00 +23°C° 0 mm 1 mps 718 mmHg 42%
03:00 +23°C° 0 mm 1 mps 718 mmHg 45%
04:00 +22°C° 0 mm 1 mps 717 mmHg 47%
05:00 +24°C° 0 mm 1 mps 718 mmHg 41%
06:00 +27°C° 0 mm 1 mps 718 mmHg 35%
07:00 +29°C° 0 mm 1 mps 719 mmHg 30%
08:00 +31°C° 0 mm 1 mps 719 mmHg 27%
09:00 +32°C° 0 mm 1 mps 719 mmHg 25%
10:00 +34°C° 0 mm 1 mps 719 mmHg 22%
11:00 +36°C° 0 mm 2 mps 718 mmHg 20%
12:00 +37°C° 0 mm 2 mps 718 mmHg 18%
13:00 +38°C° 0 mm 2 mps 718 mmHg 16%
14:00 +38°C° 0 mm 3 mps 718 mmHg 16%
15:00 +38°C° 0 mm 3 mps 717 mmHg 15%
16:00 +38°C° 0 mm 4 mps 717 mmHg 15%
17:00 +36°C° 0 mm 4 mps 717 mmHg 17%
18:00 +34°C° 0 mm 3 mps 717 mmHg 19%
19:00 +31°C° 0 mm 3 mps 717 mmHg 21%
20:00 +30°C° 0 mm 2 mps 717 mmHg 23%
21:00 +28°C° 0 mm 2 mps 717 mmHg 25%
22:00 +27°C° 0 mm 1 mps 717 mmHg 27%
23:00 +26°C° 0 mm 1 mps 716 mmHg 28%

10 August, Monday

Time Temperature Precipitation Wind Pressure Humidity
00:00 +26°C° 0 mm 1 mps 716 mmHg 29%
01:00 +25°C° 0 mm 1 mps 716 mmHg 30%
02:00 +25°C° 0 mm 1 mps 716 mmHg 31%
03:00 +24°C° 0 mm 1 mps 716 mmHg 32%
04:00 +24°C° 0 mm 1 mps 716 mmHg 33%
05:00 +27°C° 0 mm 1 mps 716 mmHg 29%
06:00 +27°C° 0 mm 0 mps 717 mmHg 24%
07:00 +30°C° 0 mm 0 mps 718 mmHg 20%
08:00 +34°C° 0 mm 1 mps 718 mmHg 18%
09:00 +37°C° 0 mm 3 mps 718 mmHg 16%
10:00 +38°C° 0 mm 4 mps 718 mmHg 14%
11:00 +40°C° 0 mm 4 mps 718 mmHg 13%
12:00 +41°C° 0 mm 5 mps 717 mmHg 12%
13:00 +41°C° 0 mm 5 mps 717 mmHg 11%
14:00 +41°C° 0 mm 5 mps 717 mmHg 11%
15:00 +41°C° 0 mm 5 mps 717 mmHg 11%
16:00 +41°C° 0 mm 5 mps 717 mmHg 11%
17:00 +39°C° 0 mm 5 mps 717 mmHg 13%
18:00 +36°C° 0 mm 4 mps 717 mmHg 15%
19:00 +33°C° 0 mm 4 mps 717 mmHg 17%
20:00 +32°C° 0 mm 4 mps 717 mmHg 20%
21:00 +29°C° 0 mm 3 mps 717 mmHg 22%
22:00 +28°C° 0 mm 3 mps 717 mmHg 25%
23:00 +27°C° 0 mm 3 mps 717 mmHg 27%

11 August, Tuesday

Time Temperature Precipitation Wind Pressure Humidity
00:00 +27°C° 0 mm 3 mps 717 mmHg 30%
01:00 +26°C° 0 mm 3 mps 717 mmHg 32%
02:00 +26°C° 0 mm 2 mps 717 mmHg 33%
03:00 +25°C° 0 mm 2 mps 717 mmHg 35%
04:00 +24°C° 0 mm 2 mps 717 mmHg 36%
05:00 +26°C° 0 mm 2 mps 718 mmHg 33%
06:00 +28°C° 0 mm 2 mps 718 mmHg 29%
07:00 +30°C° 0 mm 2 mps 719 mmHg 26%
08:00 +32°C° 0 mm 2 mps 719 mmHg 23%
09:00 +35°C° 0 mm 2 mps 719 mmHg 20%
10:00 +37°C° 0 mm 2 mps 719 mmHg 17%
11:00 +37°C° 0 mm 3 mps 719 mmHg 16%
12:00 +39°C° 0 mm 5 mps 719 mmHg 15%
13:00 +40°C° 0 mm 6 mps 718 mmHg 14%
14:00 +39°C° 0 mm 6 mps 718 mmHg 13%
15:00 +39°C° 0 mm 6 mps 718 mmHg 13%
16:00 +39°C° 0 mm 6 mps 718 mmHg 12%
17:00 +36°C° 0 mm 6 mps 718 mmHg 13%
18:00 +33°C° 0 mm 6 mps 718 mmHg 14%
19:00 +30°C° 0 mm 6 mps 718 mmHg 15%
20:00 +29°C° 0 mm 5 mps 719 mmHg 16%
21:00 +27°C° 0 mm 5 mps 719 mmHg 16%
22:00 +26°C° 0 mm 4 mps 719 mmHg 17%
23:00 +25°C° 0 mm 4 mps 719 mmHg 18%

12 August, Wednesday

Time Temperature Precipitation Wind Pressure Humidity
00:00 +24°C° 0 mm 3 mps 719 mmHg 19%
01:00 +24°C° 0 mm 3 mps 719 mmHg 20%
02:00 +22°C° 0 mm 3 mps 719 mmHg 20%
03:00 +22°C° 0 mm 3 mps 719 mmHg 21%
04:00 +22°C° 0 mm 3 mps 719 mmHg 22%
05:00 +25°C° 0 mm 3 mps 719 mmHg 20%
06:00 +27°C° 0 mm 3 mps 719 mmHg 19%
07:00 +28°C° 0 mm 3 mps 720 mmHg 17%
08:00 +31°C° 0 mm 3 mps 720 mmHg 15%
09:00 +34°C° 0 mm 4 mps 720 mmHg 14%
10:00 +36°C° 0 mm 4 mps 720 mmHg 12%
11:00 +37°C° 0 mm 5 mps 720 mmHg 12%
12:00 +37°C° 0 mm 5 mps 720 mmHg 12%
13:00 +39°C° 0 mm 6 mps 719 mmHg 12%
14:00 +39°C° 0 mm 6 mps 719 mmHg 12%
15:00 +39°C° 0 mm 7 mps 719 mmHg 13%
16:00 +38°C° 0 mm 7 mps 719 mmHg 13%
17:00 +35°C° 0 mm 7 mps 719 mmHg 14%
18:00 +33°C° 0 mm 6 mps 719 mmHg 15%
19:00 +30°C° 0 mm 6 mps 719 mmHg 17%
20:00 +28°C° 0 mm 5 mps 719 mmHg 18%
21:00 +27°C° 0 mm 4 mps 720 mmHg 19%
22:00 +25°C° 0 mm 3 mps 720 mmHg 20%
23:00 +25°C° 0 mm 3 mps 719 mmHg 21%
Show more